| time (UTC) | temp F | wind direction | speed knots | gust knots | rain 1hr in | rain 24hr in | rain mn in | humidity % | barometer mb |
| 20260510130003 | 41 | 298 | 0.0 | 1.7 | 0.00 | 0.00 | 0.00 | 46 | |
| 20260510125403 | 41 | 0 | 0.0 | 0.0 | 0.00 | 0.00 | 0.00 | 46 | |
| 20260510124713 | 41 | 0 | 0.0 | 0.0 | 0.00 | 0.00 | 0.00 | 45 | |
| 20260510123603 | 42 | 0 | 0.0 | 0.0 | 0.00 | 0.00 | 0.00 | 44 | |
| 20260510122703 | 43 | 0 | 0.0 | 0.0 | 0.00 | 0.00 | 0.00 | 42 | |
| 20260510122013 | 43 | 298 | 0.9 | 1.7 | 0.00 | 0.00 | 0.00 | 41 | |
| 20260510120903 | 42 | 298 | 0.9 | 1.7 | 0.00 | 0.00 | 0.00 | 42 | |
| 20260510120004 | 42 | 298 | 0.0 | 1.7 | 0.00 | 0.00 | 0.00 | 41 | |
| 20260510115403 | 43 | 0 | 0.0 | 0.0 | 0.00 | 0.00 | 0.00 | 38 | |
| 20260510114713 | 43 | 298 | 0.0 | 1.7 | 0.00 | 0.00 | 0.00 | 39 | |
| 20260510113603 | 42 | 0 | 0.0 | 0.0 | 0.00 | 0.00 | 0.00 | 38 | |
| 20260510112703 | 42 | 0 | 0.0 | 0.0 | 0.00 | 0.00 | 0.00 | 37 | |
| 20260510111803 | 41 | 0 | 0.0 | 0.0 | 0.00 | 0.00 | 0.00 | 38 | |
| 20260510110903 | 40 | 0 | 0.0 | 0.0 | 0.00 | 0.00 | 0.00 | 38 | |
| 20260510110004 | 41 | 298 | 0.0 | 0.9 | 0.00 | 0.00 | 0.00 | 42 | |
| 20260510105613 | 41 | 298 | 0.0 | 0.9 | 0.00 | 0.00 | 0.00 | 38 | |
| 20260510104503 | 42 | 298 | 0.9 | 2.6 | 0.00 | 0.00 | 0.00 | 39 | |
| 20260510103603 | 41 | 299 | 0.9 | 2.6 | 0.00 | 0.00 | 0.00 | 38 | |
| 20260510102703 | 41 | 299 | 0.9 | 2.6 | 0.00 | 0.00 | 0.00 | 40 | |
| 20260510101803 | 41 | 299 | 0.9 | 2.6 | 0.00 | 0.00 | 0.00 | 41 | |
| 20260510100903 | 41 | 299 | 0.9 | 2.6 | 0.00 | 0.00 | 0.00 | 40 | |
| 20260510100003 | 41 | 299 | 0.0 | 1.7 | 0.00 | 0.00 | 0.00 | 40 | |
| 20260510095403 | 42 | 299 | 0.0 | 1.7 | 0.00 | 0.00 | 0.00 | 40 | |
| 20260510094503 | 43 | 299 | 0.9 | 2.6 | 0.00 | 0.00 | 0.00 | 40 | |
| 20260510093603 | 43 | 299 | 0.0 | 0.9 | 0.00 | 0.00 | 0.00 | 42 | |
| 20260510092703 | 44 | 309 | 0.9 | 3.5 | 0.00 | 0.00 | 0.00 | 40 | |
| 20260510091803 | 44 | 0 | 0.0 | 0.0 | 0.00 | 0.00 | 0.00 | 38 | |
| 20260510090903 | 45 | 331 | 0.0 | 1.7 | 0.00 | 0.00 | 0.00 | 39 | |
| 20260510090004 | 46 | 331 | 0.0 | 1.7 | 0.00 | 0.00 | 0.00 | 41 | |
| 20260510085403 | 47 | 331 | 0.0 | 1.7 | 0.00 | 0.00 | 0.00 | 35 | |
| 20260510084503 | 47 | 331 | 0.9 | 2.6 | 0.00 | 0.00 | 0.00 | 34 | |
| 20260510083603 | 47 | 331 | 0.9 | 2.6 | 0.00 | 0.00 | 0.00 | 34 | |
| 20260510082703 | 48 | 332 | 0.0 | 1.7 | 0.00 | 0.00 | 0.00 | 34 | |
| 20260510081803 | 49 | 332 | 0.0 | 1.7 | 0.00 | 0.00 | 0.00 | 31 | |
| 20260510080903 | 49 | 334 | 2.6 | 4.3 | 0.00 | 0.00 | 0.00 | 30 | |
| 20260510080003 | 48 | 339 | 1.7 | 4.3 | 0.00 | 0.00 | 0.00 | 32 | |
| 20260510075403 | 49 | 323 | 0.9 | 4.3 | 0.00 | 0.00 | 0.00 | 34 | |
| 20260510074503 | 50 | 323 | 0.9 | 2.6 | 0.00 | 0.00 | 0.00 | 33 | |
| 20260510073603 | 50 | 322 | 1.7 | 3.5 | 0.00 | 0.00 | 0.00 | 32 | |
| 20260510072914 | 50 | 323 | 2.6 | 5.2 | 0.00 | 0.00 | 0.00 | 35 | |
| 20260510071803 | 50 | 328 | 3.5 | 6.1 | 0.00 | 0.00 | 0.00 | 35 | |
| 20260510070903 | 50 | 330 | 1.7 | 3.5 | 0.00 | 0.00 | 0.00 | 34 | |
| 20260510070214 | 50 | 330 | 0.9 | 3.5 | 0.00 | 0.00 | 0.00 | 34 | |
| 20260510065614 | 50 | 327 | 2.6 | 6.1 | 0.00 | 0.00 | 0.00 | 36 | |
| 20260510064503 | 48 | 301 | 2.6 | 4.3 | 0.00 | 0.00 | 0.00 | 37 | |
| 20260510063603 | 49 | 294 | 0.9 | 3.5 | 0.00 | 0.00 | 0.00 | 41 | |
| 20260510062914 | 51 | 299 | 0.9 | 4.3 | 0.00 | 0.00 | 0.00 | 43 | |
| 20260510061803 | 52 | 0 | 0.0 | 0.0 | 0.00 | 0.00 | 0.00 | 35 | |
| 20260510060903 | 53 | 342 | 0.9 | 2.6 | 0.00 | 0.00 | 0.00 | 33 | |
| 20260510060006 | 54 | 341 | 0.9 | 3.5 | 0.00 | 0.00 | 0.00 | 33 | |
| 20260510055613 | 54 | 339 | 1.7 | 4.3 | 0.00 | 0.00 | 0.00 | 32 | |
| 20260510054503 | 54 | 336 | 2.6 | 4.3 | 0.00 | 0.00 | 0.00 | 34 | |
| 20260510053603 | 53 | 345 | 1.7 | 4.3 | 0.00 | 0.00 | 0.00 | 33 | |
| 20260510052703 | 53 | 346 | 0.0 | 2.6 | 0.00 | 0.00 | 0.00 | 34 | |
| 20260510051803 | 54 | 346 | 0.0 | 1.7 | 0.00 | 0.00 | 0.00 | 33 | |
| 20260510050903 | 56 | 346 | 0.9 | 1.7 | 0.00 | 0.00 | 0.00 | 32 | |
| 20260510050213 | 57 | 347 | 0.9 | 3.5 | 0.00 | 0.00 | 0.00 | 31 | |
| 20260510045403 | 56 | 342 | 2.6 | 5.2 | 0.00 | 0.00 | 0.00 | 31 | |
| 20260510044503 | 56 | 326 | 3.5 | 6.1 | 0.00 | 0.00 | 0.00 | 32 | |
| 20260510043603 | 57 | 323 | 1.7 | 4.3 | 0.00 | 0.00 | 0.00 | 32 | |
| 20260510042703 | 58 | 353 | 1.7 | 3.5 | 0.00 | 0.00 | 0.00 | 32 | |
| 20260510042012 | 58 | 360 | 2.6 | 5.2 | 0.00 | 0.00 | 0.00 | 32 | |
| 20260510040903 | 58 | 360 | 0.0 | 0.9 | 0.00 | 0.00 | 0.00 | 30 | |
| 20260510040003 | 59 | 360 | 0.0 | 0.9 | 0.00 | 0.00 | 0.00 | 28 | |
| 20260510035403 | 60 | 0 | 0.0 | 0.0 | 0.00 | 0.00 | 0.00 | 28 | |
| 20260510034503 | 61 | 360 | 0.0 | 2.6 | 0.00 | 0.00 | 0.00 | 28 | |
| 20260510033604 | 62 | 360 | 0.0 | 1.7 | 0.00 | 0.00 | 0.00 | 27 | |
| 20260510032703 | 63 | 360 | 0.9 | 5.2 | 0.00 | 0.00 | 0.00 | 26 | |
| 20260510031803 | 64 | 360 | 0.9 | 1.7 | 0.00 | 0.00 | 0.00 | 25 | |
| 20260510030903 | 65 | 360 | 0.9 | 4.3 | 0.00 | 0.00 | 0.00 | 25 | |
| 20260510030003 | 66 | 360 | 1.7 | 4.3 | 0.00 | 0.00 | 0.00 | 24 | |
| 20260510025403 | 66 | 360 | 1.7 | 3.5 | 0.00 | 0.00 | 0.00 | 23 | |
| 20260510024503 | 67 | 360 | 2.6 | 5.2 | 0.00 | 0.00 | 0.00 | 23 | |
| 20260510023603 | 68 | 360 | 2.6 | 5.2 | 0.00 | 0.00 | 0.00 | 22 | |
| 20260510022703 | 68 | 360 | 3.5 | 6.1 | 0.00 | 0.00 | 0.00 | 22 | |
| 20260510021803 | 69 | 360 | 2.6 | 5.2 | 0.00 | 0.00 | 0.00 | 22 | |
| 20260510020903 | 70 | 360 | 2.6 | 6.1 | 0.00 | 0.00 | 0.00 | 23 | |
| 20260510020003 | 71 | 355 | 3.5 | 8.7 | 0.00 | 0.00 | 0.00 | 22 | |
| 20260510015614 | 72 | 357 | 3.5 | 8.7 | 0.00 | 0.00 | 0.00 | 22 | |
| 20260510014503 | 73 | 2 | 3.5 | 7.8 | 0.00 | 0.00 | 0.00 | 22 | |
| 20260510013812 | 74 | 10 | 4.3 | 10.4 | 0.00 | 0.00 | 0.00 | 22 | |
| 20260510012703 | 74 | 62 | 1.7 | 5.2 | 0.00 | 0.00 | 0.00 | 22 | |
| 20260510011803 | 74 | 71 | 2.6 | 7.8 | 0.00 | 0.00 | 0.00 | 22 | |
| 20260510011112 | 75 | 18 | 3.5 | 7.0 | 0.00 | 0.00 | 0.00 | 22 | |
| 20260510010004 | 75 | 20 | 4.3 | 8.7 | 0.00 | 0.00 | 0.00 | 23 | |
| 20260510005403 | 75 | 71 | 3.5 | 7.0 | 0.00 | 0.00 | 0.00 | 22 | |
| 20260510004503 | 75 | 9 | 4.3 | 11.3 | 0.00 | 0.00 | 0.00 | 23 | |
| 20260510003603 | 75 | 14 | 5.2 | 11.3 | 0.00 | 0.00 | 0.00 | 22 | |
| 20260510002703 | 76 | 87 | 4.3 | 10.4 | 0.00 | 0.00 | 0.00 | 20 | |
| 20260510002013 | 75 | 43 | 6.1 | 13.0 | 0.00 | 0.00 | 0.00 | 22 | |
| 20260510000903 | 75 | 1 | 7.0 | 12.2 | 0.00 | 0.00 | 0.00 | 22 | |
| 20260510000213 | 75 | 353 | 7.8 | 13.0 | 0.00 | 0.00 | 0.00 | 22 | |
| 20260509235403 | 76 | 348 | 8.7 | 13.9 | 0.00 | 0.00 | 0.00 | 23 | |
| 20260509234503 | 76 | 360 | 7.0 | 17.4 | 0.00 | 0.00 | 0.00 | 22 | |
| 20260509233814 | 77 | 336 | 7.8 | 14.8 | 0.00 | 0.00 | 0.00 | 22 | |
| 20260509232703 | 77 | 11 | 6.1 | 13.9 | 0.00 | 0.00 | 0.00 | 25 | |
| 20260509232013 | 77 | 12 | 7.0 | 13.9 | 0.00 | 0.00 | 0.00 | 21 | |
| 20260509230903 | 78 | 327 | 6.1 | 9.6 | 0.00 | 0.00 | 0.00 | 22 | |
| 20260509230213 | 78 | 336 | 5.2 | 9.6 | 0.00 | 0.00 | 0.00 | 24 | |
| 20260509225403 | 77 | 357 | 4.3 | 8.7 | 0.00 | 0.00 | 0.00 | 23 | |
| 20260509224712 | 77 | 8 | 3.5 | 9.6 | 0.00 | 0.00 | 0.00 | 21 | |
| 20260509223603 | 77 | 22 | 4.3 | 9.6 | 0.00 | 0.00 | 0.00 | 23 | |
| 20260509222703 | 78 | 336 | 5.2 | 12.2 | 0.00 | 0.00 | 0.00 | 22 | |
| 20260509222014 | 78 | 336 | 4.3 | 12.2 | 0.00 | 0.00 | 0.00 | 23 | |
| 20260509220903 | 78 | 326 | 5.2 | 11.3 | 0.00 | 0.00 | 0.00 | 22 | |
| 20260509220004 | 77 | 339 | 5.2 | 13.0 | 0.00 | 0.00 | 0.00 | 23 | |
| 20260509215403 | 77 | 355 | 3.5 | 10.4 | 0.00 | 0.00 | 0.00 | 26 | |
| 20260509214504 | 77 | 332 | 7.0 | 12.2 | 0.00 | 0.00 | 0.00 | 22 | |
| 20260509213813 | 77 | 340 | 9.6 | 14.8 | 0.00 | 0.00 | 0.00 | 25 | |
| 20260509212703 | 78 | 327 | 5.2 | 15.6 | 0.00 | 0.00 | 0.00 | 24 | |
| 20260509211803 | 77 | 13 | 4.3 | 11.3 | 0.00 | 0.00 | 0.00 | 23 | |
| 20260509210903 | 78 | 322 | 5.2 | 10.4 | 0.00 | 0.00 | 0.00 | 26 | |
| 20260509210212 | 77 | 323 | 5.2 | 10.4 | 0.00 | 0.00 | 0.00 | 26 | |
| 20260509205614 | 77 | 334 | 5.2 | 12.2 | 0.00 | 0.00 | 0.00 | 23 | |
| 20260509204713 | 77 | 357 | 4.3 | 11.3 | 0.00 | 0.00 | 0.00 | 26 | |
| 20260509203603 | 78 | 348 | 6.1 | 13.9 | 0.00 | 0.00 | 0.00 | 24 | |
| 20260509202703 | 77 | 354 | 7.8 | 12.2 | 0.00 | 0.00 | 0.00 | 23 | |
| 20260509201803 | 78 | 352 | 7.0 | 12.2 | 0.00 | 0.00 | 0.00 | 26 | |
| 20260509201113 | 77 | 10 | 3.5 | 7.8 | 0.00 | 0.00 | 0.00 | 26 | |
| 20260509200214 | 76 | 2 | 4.3 | 9.6 | 0.00 | 0.00 | 0.00 | 25 | |
| 20260509195403 | 76 | 360 | 3.5 | 7.8 | 0.00 | 0.00 | 0.00 | 28 | |
| 20260509194503 | 76 | 360 | 5.2 | 13.0 | 0.00 | 0.00 | 0.00 | 28 | |
| 20260509193603 | 76 | 360 | 5.2 | 12.2 | 0.00 | 0.00 | 0.00 | 27 | |
| 20260509192703 | 76 | 360 | 5.2 | 9.6 | 0.00 | 0.00 | 0.00 | 29 | |
| 20260509192013 | 76 | 360 | 5.2 | 9.6 | 0.00 | 0.00 | 0.00 | 26 | |
| 20260509190903 | 75 | 360 | 6.1 | 10.4 | 0.00 | 0.00 | 0.00 | 28 | |
| 20260509190214 | 76 | 360 | 7.8 | 12.2 | 0.00 | 0.00 | 0.00 | 29 | |
| 20260509185613 | 76 | 360 | 7.8 | 12.2 | 0.00 | 0.00 | 0.00 | 28 | |
| 20260509184503 | 75 | 360 | 7.0 | 12.2 | 0.00 | 0.00 | 0.00 | 27 | |
| 20260509183814 | 75 | 360 | 7.0 | 13.9 | 0.00 | 0.00 | 0.00 | 28 | |
| 20260509182703 | 74 | 360 | 5.2 | 10.4 | 0.00 | 0.00 | 0.00 | 28 | |
| 20260509181803 | 74 | 360 | 7.0 | 15.6 | 0.00 | 0.00 | 0.00 | 29 | |
| 20260509180903 | 73 | 360 | 6.1 | 12.2 | 0.00 | 0.00 | 0.00 | 30 | |
| 20260509180213 | 72 | 360 | 5.2 | 12.2 | 0.00 | 0.00 | 0.00 | 30 | |
| 20260509175403 | 72 | 360 | 5.2 | 9.6 | 0.00 | 0.00 | 0.00 | 29 | |
| 20260509174503 | 72 | 360 | 6.1 | 12.2 | 0.00 | 0.00 | 0.00 | 29 | |
| 20260509173603 | 72 | 360 | 3.5 | 8.7 | 0.00 | 0.00 | 0.00 | 32 | |
| 20260509172913 | 71 | 360 | 2.6 | 7.8 | 0.00 | 0.00 | 0.00 | 29 | |
| 20260509171803 | 70 | 360 | 5.2 | 15.6 | 0.00 | 0.00 | 0.00 | 31 | |
| 20260509170903 | 70 | 360 | 6.1 | 11.3 | 0.00 | 0.00 | 0.00 | 30 | |
| 20260509170003 | 70 | 360 | 4.3 | 11.3 | 0.00 | 0.00 | 0.00 | 32 | |
| 20260509165403 | 70 | 360 | 4.3 | 10.4 | 0.00 | 0.00 | 0.00 | 31 | |
| 20260509164503 | 70 | 360 | 5.2 | 10.4 | 0.00 | 0.00 | 0.00 | 32 | |
| 20260509163603 | 69 | 360 | 4.3 | 9.6 | 0.00 | 0.00 | 0.00 | 34 | |
| 20260509162703 | 68 | 360 | 4.3 | 7.8 | 0.00 | 0.00 | 0.00 | 31 | |
| 20260509161803 | 68 | 357 | 2.6 | 7.8 | 0.00 | 0.00 | 0.00 | 30 | |
| 20260509160903 | 68 | 360 | 0.9 | 6.1 | 0.00 | 0.00 | 0.00 | 30 | |
| 20260509160003 | 67 | 360 | 0.9 | 3.5 | 0.00 | 0.00 | 0.00 | 29 | |
| 20260509155612 | 66 | 360 | 0.9 | 3.5 | 0.00 | 0.00 | 0.00 | 31 | |
| 20260509154503 | 65 | 360 | 0.9 | 2.6 | 0.00 | 0.00 | 0.00 | 31 | |
| 20260509153604 | 64 | 360 | 1.7 | 3.5 | 0.00 | 0.00 | 0.00 | 31 | |
| 20260509152703 | 63 | 360 | 0.9 | 4.3 | 0.00 | 0.00 | 0.00 | 31 | |
| 20260509151803 | 63 | 360 | 0.9 | 3.5 | 0.00 | 0.00 | 0.00 | 31 | |
| 20260509150903 | 61 | 360 | 0.0 | 1.7 | 0.00 | 0.00 | 0.00 | 34 | |
| 20260509150004 | 60 | 360 | 0.0 | 0.9 | 0.00 | 0.00 | 0.00 | 36 | |
| 20260509145403 | 59 | 360 | 0.0 | 2.6 | 0.00 | 0.00 | 0.00 | 39 | |
| 20260509144713 | 58 | 360 | 1.7 | 3.5 | 0.00 | 0.00 | 0.00 | 41 | |
| 20260509143603 | 56 | 360 | 3.5 | 6.1 | 0.00 | 0.00 | 0.00 | 43 | |
| 20260509142914 | 56 | 360 | 2.6 | 5.2 | 0.00 | 0.00 | 0.00 | 46 | |
| 20260509141803 | 54 | 360 | 0.9 | 2.6 | 0.00 | 0.00 | 0.00 | 44 | |
| 20260509141112 | 52 | 360 | 1.7 | 2.6 | 0.00 | 0.00 | 0.00 | 44 | |
| 20260509140004 | 49 | 360 | 1.7 | 4.3 | 0.00 | 0.00 | 0.00 | 48 | |
| 20260509135403 | 48 | 360 | 0.0 | 2.6 | 0.00 | 0.00 | 0.00 | 48 | |
| 20260509134713 | 46 | 0 | 0.0 | 0.0 | 0.00 | 0.00 | 0.00 | 48 | |
| 20260509133814 | 45 | 0 | 0.0 | 0.0 | 0.00 | 0.00 | 0.00 | 51 | |
| 20260509132703 | 44 | 0 | 0.0 | 0.0 | 0.00 | 0.00 | 0.00 | 53 | |
| 20260509131803 | 43 | 0 | 0.0 | 0.0 | 0.00 | 0.00 | 0.00 | 56 | |
| 20260509130903 | 42 | 0 | 0.0 | 0.0 | 0.00 | 0.00 | 0.00 | 55 |